Change the Weather History Date:

Sunday, March 31, 2013

  Actual Average (KDTW) Record (KDTW)
Temperature  
Mean Temperature 50 °F 43 °F  
Max Temperature 60 °F 53 °F 80 °F (1943)
Min Temperature 39 °F 34 °F 6 °F (1923)
Degree Days  
Heating Degree Days 16 22  
Month to date heating degree days 862  
Since 1 July heating degree days 5415  
Cooling Degree Days 0 0  
Month to date cooling degree days 0  
Year to date cooling degree days 0  
Moisture  
Dew Point 34 °F    
Average Humidity 62    
Maximum Humidity 87    
Minimum Humidity 25    
Precipitation  
Precipitation 0.00 in 0.09 in 1.52 in (1949)
Month to date precipitation 2.28  
Year to date precipitation 6.26  
Snow  
Snow 0.00 in 0.10 in 4.70 in (1889)
Month to date snowfall 6.9  
Since 1 July snowfall 40.8  
Snow Depth -    
Sea Level Pressure  
Sea Level Pressure 29.72 in    
Wind  
Wind Speed 6 mph (SW)    
Max Wind Speed 23 mph    
Max Gust Speed 31 mph    
Visibility 10 miles    
Events Rain    
T = Trace of Precipitation, MM = Missing Value Source: NWS Daily Summary

Daily Weather History Graph

Daily Weather History Graph

Search for Another Location

Airport or City:

Trip Planner

Search our weather history database for the weather conditions in past years. The results will help you decide how hot, cold, wet, or windy it might be!

Date:

Astronomy

Mar. 31, 2013 Rise Set
Actual Time 7:16 AM EDT 7:57 PM EDT
Civil Twilight 6:48 AM EDT 8:25 PM EDT
Nautical Twilight 6:15 AM EDT 8:59 PM EDT
Astronomical Twilight 5:40 AM EDT 9:33 PM EDT
Moon 12:06 AM EDT (3/31) 9:58 AM EDT (3/31)
Length of Visible Light 13h 37m
Length of Day
12h 40m
Waning Gibbous, 78% of the Moon is Illuminated
Mar 31
Waning Gibbous
Apr 3
Last Quarter
Apr 10
New
Apr 18
First Quarter
Apr 25
Full

Hourly Weather History & Observations

Time (EDT) Temp. Windchill Dew Point Humidity Pressure Visibility Wind Dir Wind Speed Gust Speed Precip Events Conditions
12:14 AM 42.8 °F 39.3 °F 28.4 °F 57% 29.92 in 10.0 mi SE 5.8 mph - N/A   Clear
12:34 AM 42.8 °F - 30.2 °F 61% 29.92 in 10.0 mi Calm Calm - N/A   Clear
12:54 AM 41.0 °F 38.0 °F 32.0 °F 70% 29.91 in 10.0 mi South 4.6 mph - N/A   Clear
1:14 AM 39.2 °F 35.9 °F 33.8 °F 81% 29.90 in 10.0 mi South 4.6 mph - N/A   Clear
1:34 AM 39.2 °F 35.9 °F 33.8 °F 81% 29.89 in 10.0 mi South 4.6 mph - N/A   Clear
1:54 AM 39.2 °F - 33.8 °F 81% 29.88 in 10.0 mi Calm Calm - N/A   Clear
2:14 AM 39.2 °F 37.0 °F 33.8 °F 81% 29.87 in 10.0 mi South 3.5 mph - N/A   Clear
2:34 AM 39.2 °F 37.0 °F 33.8 °F 81% 29.86 in 10.0 mi South 3.5 mph - N/A   Scattered Clouds
2:54 AM 39.2 °F 37.0 °F 33.8 °F 81% 29.85 in 10.0 mi SSE 3.5 mph - N/A   Clear
3:14 AM 39.2 °F 35.9 °F 33.8 °F 81% 29.84 in 10.0 mi SSE 4.6 mph - N/A   Clear
3:34 AM 39.2 °F 37.0 °F 33.8 °F 81% 29.83 in 10.0 mi South 3.5 mph - N/A   Clear
3:54 AM 39.2 °F - 33.8 °F 81% 29.82 in 10.0 mi Calm Calm - N/A   Clear
4:14 AM 39.2 °F 37.0 °F 33.8 °F 81% 29.81 in 10.0 mi SSE 3.5 mph - N/A   Clear
4:34 AM 39.2 °F - 33.8 °F 81% 29.80 in 10.0 mi Calm Calm - N/A   Clear
4:54 AM 39.2 °F 35.9 °F 33.8 °F 81% 29.79 in 10.0 mi South 4.6 mph - N/A   Clear
5:14 AM 39.2 °F 37.0 °F 33.8 °F 81% 29.78 in 10.0 mi South 3.5 mph - N/A   Mostly Cloudy
5:34 AM 39.2 °F 35.9 °F 33.8 °F 81% 29.77 in 10.0 mi South 4.6 mph - N/A   Mostly Cloudy
5:54 AM 41.0 °F 36.4 °F 33.8 °F 76% 29.77 in 10.0 mi South 6.9 mph - N/A   Scattered Clouds
6:14 AM 41.0 °F 36.4 °F 33.8 °F 76% 29.75 in 10.0 mi South 6.9 mph - N/A   Mostly Cloudy
6:34 AM 41.0 °F 35.8 °F 35.6 °F 81% 29.75 in 10.0 mi South 8.1 mph - N/A   Overcast
6:54 AM 42.8 °F 37.0 °F 32.0 °F 66% 29.75 in 10.0 mi SSW 10.4 mph - N/A   Overcast
7:14 AM 42.8 °F 38.6 °F 32.0 °F 66% 29.75 in 10.0 mi SSW 6.9 mph - N/A   Overcast
7:34 AM 42.8 °F 38.6 °F 33.8 °F 70% 29.74 in 10.0 mi South 6.9 mph - N/A Rain Light Rain
7:55 AM 42.8 °F 39.3 °F 35.6 °F 76% 29.74 in 10.0 mi SSW 5.8 mph - N/A   Light Drizzle
8:14 AM 42.8 °F 38.6 °F 33.8 °F 70% 29.74 in 10.0 mi South 6.9 mph - N/A   Light Drizzle
8:34 AM 42.8 °F 39.3 °F 35.6 °F 76% 29.74 in 10.0 mi SSW 5.8 mph - N/A   Overcast
8:55 AM 42.8 °F 40.1 °F 35.6 °F 76% 29.73 in 10.0 mi South 4.6 mph - N/A Rain Light Rain
9:14 AM 42.8 °F 39.3 °F 37.4 °F 81% 29.73 in 10.0 mi South 5.8 mph - N/A   Light Drizzle
9:34 AM 44.6 °F 42.2 °F 37.4 °F 76% 29.72 in 10.0 mi South 4.6 mph - N/A   Overcast
9:54 AM 44.6 °F 40.7 °F 35.6 °F 71% 29.71 in 10.0 mi SSW 6.9 mph - N/A Rain Light Rain
10:14 AM 44.6 °F - 37.4 °F 76% 29.71 in 10.0 mi Calm Calm - N/A Rain Rain
10:34 AM 44.6 °F - 37.4 °F 76% 29.71 in 10.0 mi Calm Calm - N/A Rain Light Rain
10:54 AM 44.6 °F 42.2 °F 37.4 °F 76% 29.70 in 7.0 mi SSW 4.6 mph - N/A Rain Light Rain
11:14 AM 44.6 °F 41.4 °F 39.2 °F 81% 29.70 in 7.0 mi SSW 5.8 mph - N/A Rain Light Rain
11:34 AM 46.4 °F 41.9 °F 39.2 °F 76% 29.70 in 7.0 mi WSW 9.2 mph - N/A   Overcast
11:54 AM 46.4 °F 42.4 °F 42.8 °F 87% 29.70 in 7.0 mi WSW 8.1 mph - N/A   Overcast
12:14 PM 48.2 °F - 42.8 °F 82% 29.70 in 10.0 mi WSW 11.5 mph - N/A   Overcast
12:34 PM 48.2 °F - 42.8 °F 82% 29.69 in 7.0 mi WSW 11.5 mph - N/A   Overcast
12:54 PM 48.2 °F - 42.8 °F 82% 29.69 in 10.0 mi WSW 13.8 mph - N/A   Overcast
1:14 PM 50.0 °F - 42.8 °F 76% 29.69 in 10.0 mi WSW 9.2 mph - N/A   Overcast
1:34 PM 51.8 °F - 42.8 °F 71% 29.68 in 10.0 mi WSW 10.4 mph 16.1 mph N/A   Overcast
1:54 PM 51.8 °F - 42.8 °F 71% 29.67 in 10.0 mi WSW 9.2 mph - N/A   Overcast
2:14 PM 53.6 °F - 39.2 °F 58% 29.66 in 10.0 mi SW 11.5 mph 19.6 mph N/A   Overcast
2:34 PM 55.4 °F - 39.2 °F 54% 29.65 in 10.0 mi WSW 12.7 mph 19.6 mph N/A   Mostly Cloudy
2:54 PM 55.4 °F - 39.2 °F 54% 29.65 in 10.0 mi WSW 10.4 mph - N/A   Mostly Cloudy
3:14 PM 57.2 °F - 39.2 °F 51% 29.64 in 10.0 mi SW 12.7 mph 18.4 mph N/A   Mostly Cloudy
3:34 PM 57.2 °F - 37.4 °F 48% 29.63 in 10.0 mi WSW 10.4 mph 18.4 mph N/A   Mostly Cloudy
3:54 PM 59.0 °F - 35.6 °F 42% 29.63 in 10.0 mi SW 12.7 mph 17.3 mph N/A   Mostly Cloudy
4:14 PM 60.8 °F - 33.8 °F 36% 29.62 in 10.0 mi WSW 11.5 mph 17.3 mph N/A   Scattered Clouds
4:34 PM 59.0 °F - 30.2 °F 34% 29.62 in 10.0 mi WSW 6.9 mph - N/A   Scattered Clouds
4:54 PM 60.8 °F - 26.6 °F 27% 29.61 in 10.0 mi West 10.4 mph 23.0 mph N/A   Scattered Clouds
5:14 PM 60.8 °F - 26.6 °F 27% 29.61 in 10.0 mi West 12.7 mph 18.4 mph N/A   Mostly Cloudy
5:34 PM 60.8 °F - 24.8 °F 25% 29.61 in 10.0 mi West 17.3 mph 20.7 mph N/A   Scattered Clouds
5:54 PM 59.0 °F - 24.8 °F 27% 29.61 in 10.0 mi West 15.0 mph 24.2 mph N/A   Scattered Clouds
6:15 PM 59.0 °F - 23.0 °F 25% 29.61 in 10.0 mi WSW 12.7 mph 25.3 mph N/A   Scattered Clouds
6:34 PM 57.2 °F - 23.0 °F 27% 29.61 in 10.0 mi West 11.5 mph 18.4 mph N/A   Scattered Clouds
6:54 PM 57.2 °F - 23.0 °F 27% 29.61 in 10.0 mi West 10.4 mph 16.1 mph N/A   Mostly Cloudy
7:15 PM 57.2 °F - 23.0 °F 27% 29.61 in 10.0 mi West 10.4 mph 18.4 mph N/A   Mostly Cloudy
7:34 PM 57.2 °F - 21.2 °F 25% 29.61 in 10.0 mi West 13.8 mph 17.3 mph N/A   Overcast
7:54 PM 57.2 °F - 23.0 °F 27% 29.62 in 10.0 mi West 16.1 mph 23.0 mph N/A   Overcast
8:14 PM 55.4 °F - 24.8 °F 31% 29.62 in 10.0 mi West 10.4 mph 21.9 mph N/A   Mostly Cloudy
8:34 PM 55.4 °F - 24.8 °F 31% 29.62 in 10.0 mi West 11.5 mph 23.0 mph N/A   Mostly Cloudy
8:54 PM 53.6 °F - 30.2 °F 41% 29.64 in 10.0 mi West 23.0 mph 31.1 mph N/A   Overcast
9:14 PM 51.8 °F - 32.0 °F 47% 29.64 in 10.0 mi WSW 8.1 mph 18.4 mph N/A   Overcast
9:34 PM 51.8 °F - 33.8 °F 50% 29.64 in 10.0 mi West 8.1 mph - N/A   Overcast
10:14 PM 50.0 °F - 33.8 °F 54% 29.64 in 10.0 mi WSW 5.8 mph - N/A   Overcast
10:34 PM 50.0 °F - 33.8 °F 54% 29.65 in 10.0 mi West 6.9 mph - N/A   Overcast
11:14 PM 48.2 °F - 33.8 °F 58% 29.64 in 10.0 mi West 6.9 mph - N/A   Overcast
11:34 PM 48.2 °F - 33.8 °F 58% 29.65 in 10.0 mi West 12.7 mph 18.4 mph N/A   Overcast